Time,TemperatureF,DewpointF,PressureIn,WindDirection,WindDirectionDegrees,WindSpeedMPH,WindSpeedGustMPH,Humidity,HourlyPrecipIn,Conditions,Clouds,dailyrainin,SoftwareType,DateUTC
2013-03-16 00:00:00,27.7,24.3,29.79,NNE,23,5.4,9.6,87,0.00,,,0.00,WUHU216HW,2013-03-16 05:00:00,
2013-03-16 00:05:00,27.7,24.3,29.79,East,90,6.9,9.6,87,0.00,,,0.00,WUHU216HW,2013-03-16 05:05:00,
2013-03-16 00:10:00,27.7,24.0,29.79,ENE,68,6.3,9.2,86,0.00,,,0.00,WUHU216HW,2013-03-16 05:10:00,
2013-03-16 00:15:00,27.7,24.0,29.79,East,90,3.6,9.2,86,0.00,,,0.00,WUHU216HW,2013-03-16 05:15:00,
2013-03-16 00:20:00,27.5,24.1,29.78,NE,45,5.1,8.1,87,0.00,,,0.00,WUHU216HW,2013-03-16 05:20:00,
2013-03-16 00:25:00,27.5,24.1,29.78,NE,45,8.9,9.2,87,0.00,,,0.00,WUHU216HW,2013-03-16 05:25:00,
2013-03-16 00:30:00,27.2,23.8,29.79,East,90,5.8,9.4,87,0.00,,,0.00,WUHU216HW,2013-03-16 05:30:00,
2013-03-16 00:35:00,27.2,24.1,29.79,ENE,68,7.2,9.4,88,0.00,,,0.00,WUHU216HW,2013-03-16 05:35:00,
2013-03-16 00:40:00,27.0,24.0,29.79,North,0,7.2,9.4,88,0.00,,,0.00,WUHU216HW,2013-03-16 05:40:00,
2013-03-16 00:45:00,27.0,24.0,29.79,NE,45,6.9,9.4,88,0.00,,,0.00,WUHU216HW,2013-03-16 05:45:00,
2013-03-16 00:50:00,27.0,24.0,29.78,NE,45,6.5,9.4,88,0.00,,,0.00,WUHU216HW,2013-03-16 05:50:00,
2013-03-16 00:55:00,27.0,24.0,29.79,NNE,23,4.0,8.5,88,0.00,,,0.00,WUHU216HW,2013-03-16 05:55:00,
2013-03-16 01:00:00,27.0,24.0,29.79,ENE,68,5.1,8.5,88,0.00,,,0.00,WUHU216HW,2013-03-16 06:00:00,
2013-03-16 01:05:00,27.0,24.0,29.79,NE,45,4.0,6.5,88,0.00,,,0.00,WUHU216HW,2013-03-16 06:05:00,
2013-03-16 01:10:00,27.0,24.0,29.79,NE,45,7.2,7.6,88,0.00,,,0.00,WUHU216HW,2013-03-16 06:10:00,
2013-03-16 01:15:00,27.0,24.0,29.78,NE,45,5.8,7.6,88,0.00,,,0.00,WUHU216HW,2013-03-16 06:15:00,
2013-03-16 01:20:00,27.0,24.0,29.78,NE,45,6.0,7.4,88,0.00,,,0.00,WUHU216HW,2013-03-16 06:20:00,
2013-03-16 01:25:00,27.0,24.0,29.78,ENE,68,3.1,7.8,88,0.00,,,0.00,WUHU216HW,2013-03-16 06:25:00,
2013-03-16 01:30:00,26.8,23.8,29.78,NE,45,7.2,8.5,88,0.00,,,0.00,WUHU216HW,2013-03-16 06:30:00,
2013-03-16 01:35:00,26.8,23.8,29.78,ENE,68,8.7,8.7,88,0.00,,,0.00,WUHU216HW,2013-03-16 06:35:00,
2013-03-16 01:40:00,26.8,23.8,29.79,NE,45,4.0,11.9,88,0.00,,,0.00,WUHU216HW,2013-03-16 06:40:00,
2013-03-16 01:45:00,26.6,23.6,29.79,NE,45,7.6,11.9,88,0.00,,,0.00,WUHU216HW,2013-03-16 06:45:00,
2013-03-16 01:50:00,26.6,23.0,29.79,NE,45,6.3,12.1,86,0.00,,,0.00,WUHU216HW,2013-03-16 06:50:00,
2013-03-16 01:55:00,26.5,22.8,29.79,ENE,68,6.0,12.1,86,0.00,,,0.00,WUHU216HW,2013-03-16 06:55:00,
2013-03-16 02:00:00,26.5,22.8,29.78,NE,45,8.5,9.8,86,0.00,,,0.00,WUHU216HW,2013-03-16 07:00:00,
2013-03-16 02:05:00,26.5,22.8,29.78,NE,45,7.8,9.2,86,0.00,,,0.00,WUHU216HW,2013-03-16 07:05:00,
2013-03-16 02:10:00,26.5,22.5,29.78,ENE,68,13.4,13.4,85,0.00,,,0.00,WUHU216HW,2013-03-16 07:10:00,
2013-03-16 02:15:00,26.5,22.5,29.77,NE,45,12.8,13.4,85,0.00,,,0.00,WUHU216HW,2013-03-16 07:15:00,
2013-03-16 02:20:00,26.3,22.1,29.77,ENE,68,8.5,12.8,84,0.00,,,0.00,WUHU216HW,2013-03-16 07:20:00,
2013-03-16 02:25:00,26.3,22.3,29.78,NE,45,5.1,9.8,85,0.00,,,0.00,WUHU216HW,2013-03-16 07:25:00,
2013-03-16 02:30:00,26.3,22.3,29.78,NNE,23,6.0,6.9,85,0.00,,,0.00,WUHU216HW,2013-03-16 07:30:00,
2013-03-16 02:35:00,26.3,22.3,29.78,NE,45,5.4,8.9,85,0.00,,,0.00,WUHU216HW,2013-03-16 07:35:00,
2013-03-16 02:40:00,26.3,22.3,29.78,East,90,8.7,9.4,85,0.00,,,0.00,WUHU216HW,2013-03-16 07:40:00,
2013-03-16 02:45:00,26.1,21.9,29.79,NNE,23,8.7,11.0,84,0.00,,,0.00,WUHU216HW,2013-03-16 07:45:00,
2013-03-16 02:50:00,25.9,22.0,29.79,NE,45,8.7,11.0,85,0.00,,,0.00,WUHU216HW,2013-03-16 07:50:00,
2013-03-16 02:55:00,25.9,22.0,29.79,NE,45,8.9,10.3,85,0.00,,,0.00,WUHU216HW,2013-03-16 07:55:00,
2013-03-16 03:00:00,25.9,22.0,29.79,NNE,23,5.8,8.9,85,0.00,,,0.00,WUHU216HW,2013-03-16 08:00:00,
2013-03-16 03:05:00,25.9,22.0,29.79,ENE,68,11.0,11.0,85,0.00,,,0.00,WUHU216HW,2013-03-16 08:05:00,
2013-03-16 03:10:00,25.7,21.9,29.79,NNE,23,5.4,11.0,85,0.00,,,0.00,WUHU216HW,2013-03-16 08:10:00,
2013-03-16 03:15:00,25.7,21.9,29.79,NE,45,6.9,9.2,85,0.00,,,0.00,WUHU216HW,2013-03-16 08:15:00,
2013-03-16 03:20:00,25.6,21.7,29.79,NE,45,7.8,11.9,85,0.00,,,0.00,WUHU216HW,2013-03-16 08:20:00,
2013-03-16 03:25:00,25.4,21.5,29.78,NE,45,7.6,11.9,85,0.00,,,0.00,WUHU216HW,2013-03-16 08:25:00,
2013-03-16 03:30:00,25.2,21.6,29.78,NE,45,6.9,10.5,86,0.00,,,0.00,WUHU216HW,2013-03-16 08:30:00,
2013-03-16 03:35:00,25.2,21.3,29.78,East,90,7.4,9.2,85,0.00,,,0.00,WUHU216HW,2013-03-16 08:35:00,
2013-03-16 03:40:00,25.0,21.4,29.78,NE,45,6.0,10.3,86,0.00,,,0.00,WUHU216HW,2013-03-16 08:40:00,
2013-03-16 03:45:00,24.8,21.5,29.78,NE,45,7.8,10.3,87,0.00,,,0.00,WUHU216HW,2013-03-16 08:45:00,
2013-03-16 03:50:00,24.8,21.5,29.78,NE,45,8.7,8.7,87,0.00,,,0.00,WUHU216HW,2013-03-16 08:50:00,
2013-03-16 03:55:00,24.7,21.3,29.78,ENE,68,7.8,8.7,87,0.00,,,0.00,WUHU216HW,2013-03-16 08:55:00,
2013-03-16 04:00:00,24.7,21.3,29.77,NNE,23,7.2,10.5,87,0.00,,,0.00,WUHU216HW,2013-03-16 09:00:00,
2013-03-16 04:05:00,24.5,21.2,29.78,NE,45,9.4,10.5,87,0.00,,,0.00,WUHU216HW,2013-03-16 09:05:00,
2013-03-16 04:10:00,24.3,21.0,29.79,NE,45,7.6,9.6,87,0.00,,,0.00,WUHU216HW,2013-03-16 09:10:00,
2013-03-16 04:15:00,24.1,20.8,29.80,NNE,23,6.3,10.1,87,0.00,,,0.00,WUHU216HW,2013-03-16 09:15:00,
2013-03-16 04:20:00,23.4,19.8,29.80,NNE,23,7.8,10.3,86,0.00,,,0.00,WUHU216HW,2013-03-16 09:20:00,
2013-03-16 04:25:00,22.9,19.5,29.80,NE,45,8.7,10.3,87,0.00,,,0.00,WUHU216HW,2013-03-16 09:25:00,
2013-03-16 04:30:00,22.7,19.4,29.80,NE,45,8.3,11.4,87,0.00,,,0.00,WUHU216HW,2013-03-16 09:30:00,
2013-03-16 04:35:00,22.5,19.2,29.80,NE,45,6.9,11.4,87,0.00,,,0.00,WUHU216HW,2013-03-16 09:35:00,
2013-03-16 04:40:00,22.3,19.0,29.80,NE,45,7.8,11.2,87,0.00,,,0.00,WUHU216HW,2013-03-16 09:40:00,
2013-03-16 04:45:00,22.1,18.8,29.80,NE,45,3.6,10.5,87,0.00,,,0.00,WUHU216HW,2013-03-16 09:45:00,
2013-03-16 04:50:00,22.0,18.6,29.81,North,0,4.7,10.5,87,0.00,,,0.00,WUHU216HW,2013-03-16 09:50:00,
2013-03-16 04:55:00,22.0,18.6,29.81,ENE,68,4.9,9.2,87,0.00,,,0.00,WUHU216HW,2013-03-16 09:55:00,
2013-03-16 05:00:00,21.8,18.7,29.81,ENE,68,6.0,9.2,88,0.00,,,0.00,WUHU216HW,2013-03-16 10:00:00,
2013-03-16 05:05:00,21.6,18.3,29.81,NNE,23,4.9,7.8,87,0.00,,,0.00,WUHU216HW,2013-03-16 10:05:00,
2013-03-16 05:10:00,21.6,18.3,29.82,NE,45,4.7,7.8,87,0.00,,,0.00,WUHU216HW,2013-03-16 10:10:00,
2013-03-16 05:15:00,21.4,18.1,29.82,NE,45,7.6,7.6,87,0.00,,,0.00,WUHU216HW,2013-03-16 10:15:00,
2013-03-16 05:20:00,21.2,17.9,29.82,ENE,68,8.9,9.6,87,0.00,,,0.00,WUHU216HW,2013-03-16 10:20:00,
2013-03-16 05:25:00,21.2,17.9,29.82,North,0,6.9,9.6,87,0.00,,,0.00,WUHU216HW,2013-03-16 10:25:00,
2013-03-16 05:30:00,21.1,17.7,29.82,North,0,4.9,7.4,87,0.00,,,0.00,WUHU216HW,2013-03-16 10:30:00,
2013-03-16 05:35:00,20.9,17.6,29.83,NE,45,7.6,9.2,87,0.00,,,0.00,WUHU216HW,2013-03-16 10:35:00,
2013-03-16 05:40:00,20.9,17.6,29.82,NNE,23,4.5,9.2,87,0.00,,,0.00,WUHU216HW,2013-03-16 10:40:00,
2013-03-16 05:45:00,20.9,17.8,29.83,NE,45,3.4,8.3,88,0.00,,,0.00,WUHU216HW,2013-03-16 10:45:00,
2013-03-16 05:50:00,20.7,17.6,29.83,NE,45,4.7,8.9,88,0.00,,,0.00,WUHU216HW,2013-03-16 10:50:00,
2013-03-16 05:55:00,20.7,17.6,29.83,NE,45,7.4,8.9,88,0.00,,,0.00,WUHU216HW,2013-03-16 10:55:00,
2013-03-16 06:00:00,20.5,17.5,29.84,North,0,8.3,9.8,88,0.00,,,0.00,WUHU216HW,2013-03-16 11:00:00,
2013-03-16 06:05:00,20.2,16.8,29.84,NE,45,5.8,12.5,87,0.00,,,0.00,WUHU216HW,2013-03-16 11:05:00,
2013-03-16 06:10:00,20.2,17.1,29.85,NE,45,5.6,12.5,88,0.00,,,0.00,WUHU216HW,2013-03-16 11:10:00,
2013-03-16 06:15:00,20.0,16.7,29.85,North,0,8.9,8.9,87,0.00,,,0.00,WUHU216HW,2013-03-16 11:15:00,
2013-03-16 06:20:00,20.0,16.7,29.85,NNE,23,3.6,8.9,87,0.00,,,0.00,WUHU216HW,2013-03-16 11:20:00,
2013-03-16 06:25:00,20.0,16.9,29.85,NE,45,7.2,7.6,88,0.00,,,0.00,WUHU216HW,2013-03-16 11:25:00,
2013-03-16 06:30:00,19.8,16.5,29.85,NNE,23,6.5,13.2,87,0.00,,,0.00,WUHU216HW,2013-03-16 11:30:00,
2013-03-16 06:35:00,19.8,16.5,29.85,NE,45,6.3,13.2,87,0.00,,,0.00,WUHU216HW,2013-03-16 11:35:00,
2013-03-16 06:40:00,19.8,16.5,29.86,NNE,23,6.3,7.6,87,0.00,,,0.00,WUHU216HW,2013-03-16 11:40:00,
2013-03-16 06:45:00,19.8,16.5,29.86,NE,45,6.3,7.6,87,0.00,,,0.00,WUHU216HW,2013-03-16 11:45:00,
2013-03-16 06:50:00,19.8,16.5,29.86,NNE,23,4.7,9.6,87,0.00,,,0.00,WUHU216HW,2013-03-16 11:50:00,
2013-03-16 06:55:00,19.6,16.3,29.86,North,0,5.6,9.6,87,0.00,,,0.00,WUHU216HW,2013-03-16 11:55:00,
2013-03-16 07:00:00,19.6,16.3,29.87,NE,45,5.4,8.5,87,0.00,,,0.00,WUHU216HW,2013-03-16 12:00:00,
2013-03-16 07:05:00,19.6,16.0,29.87,NE,45,8.5,8.9,86,0.00,,,0.00,WUHU216HW,2013-03-16 12:05:00,
2013-03-16 07:10:00,19.4,15.6,29.87,NE,45,9.4,10.1,85,0.00,,,0.00,WUHU216HW,2013-03-16 12:10:00,
2013-03-16 07:15:00,19.3,15.4,29.87,North,0,8.3,10.1,85,0.00,,,0.00,WUHU216HW,2013-03-16 12:15:00,
2013-03-16 07:20:00,19.3,15.4,29.87,NE,45,6.5,8.3,85,0.00,,,0.00,WUHU216HW,2013-03-16 12:20:00,
2013-03-16 07:25:00,19.4,15.6,29.87,NNE,23,6.9,7.4,85,0.00,,,0.00,WUHU216HW,2013-03-16 12:25:00,
2013-03-16 07:30:00,19.4,15.6,29.88,NE,45,4.0,6.9,85,0.00,,,0.00,WUHU216HW,2013-03-16 12:30:00,
2013-03-16 07:35:00,19.6,16.0,29.88,NNE,23,5.1,5.8,86,0.00,,,0.00,WUHU216HW,2013-03-16 12:35:00,
2013-03-16 07:40:00,19.8,16.2,29.88,North,0,2.7,5.8,86,0.00,,,0.00,WUHU216HW,2013-03-16 12:40:00,
2013-03-16 07:45:00,19.8,16.2,29.88,NE,45,3.4,5.4,86,0.00,,,0.00,WUHU216HW,2013-03-16 12:45:00,
2013-03-16 07:50:00,19.8,15.9,29.88,North,0,4.7,7.4,85,0.00,,,0.00,WUHU216HW,2013-03-16 12:50:00,
2013-03-16 07:55:00,19.8,15.9,29.89,North,0,2.5,7.4,85,0.00,,,0.00,WUHU216HW,2013-03-16 12:55:00,
2013-03-16 08:00:00,19.8,15.7,29.89,NNE,23,3.6,5.4,84,0.00,,,0.00,WUHU216HW,2013-03-16 13:00:00,
2013-03-16 08:05:00,19.8,15.7,29.90,North,0,4.5,5.4,84,0.00,,,0.00,WUHU216HW,2013-03-16 13:05:00,
2013-03-16 08:10:00,19.8,15.7,29.90,North,0,4.0,5.4,84,0.00,,,0.00,WUHU216HW,2013-03-16 13:10:00,
2013-03-16 08:15:00,19.8,15.4,29.90,North,0,3.6,6.3,83,0.00,,,0.00,WUHU216HW,2013-03-16 13:15:00,
2013-03-16 08:20:00,19.6,15.2,29.91,NNE,23,4.5,6.3,83,0.00,,,0.00,WUHU216HW,2013-03-16 13:20:00,
2013-03-16 08:25:00,19.6,15.2,29.91,NE,45,4.7,6.3,83,0.00,,,0.00,WUHU216HW,2013-03-16 13:25:00,
2013-03-16 08:30:00,19.6,14.9,29.91,NNW,338,6.3,6.7,82,0.00,,,0.00,WUHU216HW,2013-03-16 13:30:00,
2013-03-16 08:35:00,19.6,14.9,29.91,NNW,338,4.7,6.7,82,0.00,,,0.00,WUHU216HW,2013-03-16 13:35:00,
2013-03-16 08:40:00,19.6,14.9,29.91,NNE,23,4.3,6.5,82,0.00,,,0.00,WUHU216HW,2013-03-16 13:40:00,
2013-03-16 08:45:00,19.8,15.1,29.91,North,0,4.0,6.7,82,0.00,,,0.00,WUHU216HW,2013-03-16 13:45:00,
2013-03-16 08:50:00,19.8,15.1,29.91,NE,45,4.5,6.9,82,0.00,,,0.00,WUHU216HW,2013-03-16 13:50:00,
2013-03-16 08:55:00,19.8,14.9,29.91,NNE,23,5.4,10.1,81,0.00,,,0.00,WUHU216HW,2013-03-16 13:55:00,
2013-03-16 09:00:00,19.8,15.1,29.91,North,0,4.7,10.1,82,0.00,,,0.00,WUHU216HW,2013-03-16 14:00:00,
2013-03-16 09:05:00,19.8,14.9,29.92,NE,45,6.3,7.2,81,0.00,,,0.00,WUHU216HW,2013-03-16 14:05:00,
2013-03-16 09:10:00,20.0,14.8,29.92,NNE,23,5.1,8.7,80,0.00,,,0.00,WUHU216HW,2013-03-16 14:10:00,
2013-03-16 09:15:00,19.8,14.6,29.93,NNW,338,5.6,8.7,80,0.00,,,0.00,WUHU216HW,2013-03-16 14:15:00,
2013-03-16 09:20:00,19.8,14.6,29.93,North,0,7.6,7.8,80,0.00,,,0.00,WUHU216HW,2013-03-16 14:20:00,
2013-03-16 09:25:00,20.0,14.8,29.94,North,0,4.5,7.6,80,0.00,,,0.00,WUHU216HW,2013-03-16 14:25:00,
2013-03-16 09:30:00,20.2,14.7,29.94,North,0,4.0,5.6,79,0.00,,,0.00,WUHU216HW,2013-03-16 14:30:00,
2013-03-16 09:35:00,20.3,14.9,29.94,NNW,338,4.7,5.6,79,0.00,,,0.00,WUHU216HW,2013-03-16 14:35:00,
2013-03-16 09:40:00,20.5,15.0,29.95,ENE,68,6.3,6.3,79,0.00,,,0.00,WUHU216HW,2013-03-16 14:40:00,
2013-03-16 09:45:00,20.3,14.9,29.94,NE,45,2.7,6.3,79,0.00,,,0.00,WUHU216HW,2013-03-16 14:45:00,
2013-03-16 09:50:00,20.7,15.5,29.95,North,0,5.6,6.3,80,0.00,,,0.00,WUHU216HW,2013-03-16 14:50:00,
2013-03-16 09:55:00,20.7,15.2,29.94,NE,45,6.9,8.1,79,0.00,,,0.00,WUHU216HW,2013-03-16 14:55:00,
2013-03-16 10:00:00,20.7,15.2,29.94,NNE,23,3.6,8.1,79,0.00,,,0.00,WUHU216HW,2013-03-16 15:00:00,
2013-03-16 10:05:00,21.2,16.0,29.94,North,0,1.8,5.8,80,0.00,,,0.00,WUHU216HW,2013-03-16 15:05:00,
2013-03-16 10:10:00,21.4,15.6,29.95,NNE,23,2.7,5.8,78,0.00,,,0.00,WUHU216HW,2013-03-16 15:10:00,
2013-03-16 10:15:00,21.4,15.3,29.95,North,0,7.6,7.6,77,0.00,,,0.00,WUHU216HW,2013-03-16 15:15:00,
2013-03-16 10:20:00,21.8,15.7,29.95,NW,315,4.0,7.6,77,0.00,,,0.00,WUHU216HW,2013-03-16 15:20:00,
2013-03-16 10:25:00,22.1,16.0,29.95,NE,45,4.7,4.7,77,0.00,,,0.00,WUHU216HW,2013-03-16 15:25:00,
2013-03-16 10:30:00,22.1,16.0,29.96,NW,315,4.9,4.9,77,0.00,,,0.00,WUHU216HW,2013-03-16 15:30:00,
2013-03-16 10:35:00,22.0,15.5,29.96,NNE,23,3.4,7.2,76,0.00,,,0.00,WUHU216HW,2013-03-16 15:35:00,
2013-03-16 10:40:00,21.6,15.5,29.97,North,0,4.0,7.2,77,0.00,,,0.00,WUHU216HW,2013-03-16 15:40:00,
2013-03-16 10:45:00,22.0,15.9,29.97,North,0,4.0,6.9,77,0.00,,,0.00,WUHU216HW,2013-03-16 15:45:00,
2013-03-16 10:50:00,22.3,16.2,29.97,NE,45,3.4,5.4,77,0.00,,,0.00,WUHU216HW,2013-03-16 15:50:00,
2013-03-16 10:55:00,23.0,16.6,29.97,NE,45,5.6,5.6,76,0.00,,,0.00,WUHU216HW,2013-03-16 15:55:00,
2013-03-16 11:00:00,23.0,16.3,29.97,NNW,338,3.6,5.6,75,0.00,,,0.00,WUHU216HW,2013-03-16 16:00:00,
2013-03-16 11:05:00,23.4,16.7,29.97,North,0,4.3,6.3,75,0.00,,,0.00,WUHU216HW,2013-03-16 16:05:00,
2013-03-16 11:10:00,23.2,16.5,29.98,NNE,23,2.7,6.3,75,0.00,,,0.00,WUHU216HW,2013-03-16 16:10:00,
2013-03-16 11:15:00,23.4,16.3,29.98,North,0,4.0,6.3,74,0.00,,,0.00,WUHU216HW,2013-03-16 16:15:00,
2013-03-16 11:20:00,23.9,17.1,29.98,ENE,68,2.5,6.3,75,0.00,,,0.00,WUHU216HW,2013-03-16 16:20:00,
2013-03-16 11:25:00,24.3,16.8,29.98,North,0,2.5,4.9,73,0.00,,,0.00,WUHU216HW,2013-03-16 16:25:00,
2013-03-16 11:30:00,24.5,16.4,29.99,WNW,293,5.4,6.0,71,0.00,,,0.00,WUHU216HW,2013-03-16 16:30:00,
2013-03-16 11:35:00,24.5,16.8,29.98,NE,45,0.4,6.0,72,0.00,,,0.00,WUHU216HW,2013-03-16 16:35:00,
2013-03-16 11:40:00,24.8,17.0,29.98,NNE,23,1.6,4.0,72,0.00,,,0.00,WUHU216HW,2013-03-16 16:40:00,
2013-03-16 11:45:00,25.2,17.1,29.98,NNW,338,6.0,6.0,71,0.00,,,0.00,WUHU216HW,2013-03-16 16:45:00,
2013-03-16 11:50:00,25.4,16.9,29.98,NNW,338,6.3,6.3,70,0.00,,,0.00,WUHU216HW,2013-03-16 16:50:00,
2013-03-16 11:55:00,25.6,17.1,29.99,NW,315,5.4,6.3,70,0.00,,,0.00,WUHU216HW,2013-03-16 16:55:00,
2013-03-16 12:00:00,25.9,17.7,29.99,NW,315,2.2,5.4,71,0.00,,,0.00,WUHU216HW,2013-03-16 17:00:00,
2013-03-16 12:05:00,26.6,18.2,29.98,NNE,23,3.6,4.7,70,0.00,,,0.00,WUHU216HW,2013-03-16 17:05:00,
2013-03-16 12:10:00,27.2,17.6,29.98,NNE,23,6.7,6.7,67,0.00,,,0.00,WUHU216HW,2013-03-16 17:10:00,
2013-03-16 12:15:00,27.2,17.3,29.98,NNW,338,6.9,6.9,66,0.00,,,0.00,WUHU216HW,2013-03-16 17:15:00,
2013-03-16 12:20:00,27.0,17.5,29.98,NE,45,2.2,6.9,67,0.00,,,0.00,WUHU216HW,2013-03-16 17:20:00,
2013-03-16 12:25:00,28.3,18.7,29.98,North,0,3.6,5.6,67,0.00,,,0.00,WUHU216HW,2013-03-16 17:25:00,
2013-03-16 12:30:00,28.4,18.2,29.98,NNE,23,2.5,4.7,65,0.00,,,0.00,WUHU216HW,2013-03-16 17:30:00,
2013-03-16 12:35:00,28.8,18.6,29.98,NE,45,4.9,6.3,65,0.00,,,0.00,WUHU216HW,2013-03-16 17:35:00,
2013-03-16 12:40:00,29.2,18.8,29.98,NNE,23,2.5,6.3,65,0.00,,,0.00,WUHU216HW,2013-03-16 17:40:00,
2013-03-16 12:45:00,29.2,18.5,29.98,NNE,23,4.0,4.5,64,0.00,,,0.00,WUHU216HW,2013-03-16 17:45:00,
2013-03-16 12:50:00,29.5,19.2,29.98,North,0,2.2,4.5,65,0.00,,,0.00,WUHU216HW,2013-03-16 17:50:00,
2013-03-16 12:55:00,30.2,19.4,29.98,WNW,293,4.3,4.3,64,0.00,,,0.00,WUHU216HW,2013-03-16 17:55:00,
2013-03-16 13:00:00,30.1,18.9,29.98,NE,45,3.8,6.3,63,0.00,,,0.00,WUHU216HW,2013-03-16 18:00:00,
2013-03-16 13:05:00,29.7,19.0,29.98,North,0,1.8,6.3,64,0.00,,,0.00,WUHU216HW,2013-03-16 18:05:00,
2013-03-16 13:10:00,30.1,18.5,29.98,East,90,1.3,5.4,62,0.00,,,0.00,WUHU216HW,2013-03-16 18:10:00,
2013-03-16 13:15:00,30.6,19.1,29.98,NNW,338,3.6,5.4,62,0.01,,,0.01,WUHU216HW,2013-03-16 18:15:00,
2013-03-16 13:20:00,31.1,19.6,29.98,ESE,113,0.9,4.5,62,0.01,,,0.01,WUHU216HW,2013-03-16 18:20:00,
2013-03-16 13:25:00,32.8,21.5,29.98,NNW,338,1.6,3.4,63,0.01,,,0.01,WUHU216HW,2013-03-16 18:25:00,
2013-03-16 13:30:00,33.7,20.4,29.98,North,0,1.8,4.3,58,0.01,,,0.01,WUHU216HW,2013-03-16 18:30:00,
2013-03-16 13:35:00,33.5,19.8,29.98,North,0,4.3,5.1,57,0.01,,,0.01,WUHU216HW,2013-03-16 18:35:00,
2013-03-16 13:40:00,32.9,19.7,29.98,NW,315,3.8,5.8,58,0.01,,,0.01,WUHU216HW,2013-03-16 18:40:00,
2013-03-16 13:45:00,33.5,19.4,29.98,North,0,3.1,5.8,56,0.02,,,0.02,WUHU216HW,2013-03-16 18:45:00,
2013-03-16 13:50:00,32.4,19.3,29.98,North,0,4.0,5.6,58,0.02,,,0.02,WUHU216HW,2013-03-16 18:50:00,
2013-03-16 13:55:00,31.7,18.5,29.98,NW,315,1.1,5.6,58,0.02,,,0.02,WUHU216HW,2013-03-16 18:55:00,
2013-03-16 14:00:00,31.7,19.0,29.98,North,0,2.2,7.2,59,0.02,,,0.02,WUHU216HW,2013-03-16 19:00:00,
2013-03-16 14:05:00,31.5,18.5,29.98,North,0,2.5,7.2,58,0.02,,,0.02,WUHU216HW,2013-03-16 19:05:00,
2013-03-16 14:10:00,31.5,19.3,29.98,ENE,68,4.0,4.9,60,0.01,,,0.02,WUHU216HW,2013-03-16 19:10:00,
2013-03-16 14:15:00,32.0,19.8,29.98,ENE,68,4.7,4.7,60,0.01,,,0.02,WUHU216HW,2013-03-16 19:15:00,
2013-03-16 14:20:00,31.9,19.2,29.98,NNW,338,2.0,4.7,59,0.01,,,0.02,WUHU216HW,2013-03-16 19:20:00,
2013-03-16 14:25:00,32.0,18.9,29.98,NW,315,3.4,7.6,58,0.01,,,0.02,WUHU216HW,2013-03-16 19:25:00,
2013-03-16 14:30:00,32.2,19.5,29.98,SW,225,1.3,7.6,59,0.01,,,0.02,WUHU216HW,2013-03-16 19:30:00,
2013-03-16 14:35:00,33.3,20.5,29.98,NW,315,1.8,5.6,59,0.01,,,0.02,WUHU216HW,2013-03-16 19:35:00,
2013-03-16 14:40:00,33.5,20.3,29.98,NNE,23,1.8,5.6,58,0.00,,,0.02,WUHU216HW,2013-03-16 19:40:00,
2013-03-16 14:45:00,33.3,20.1,29.98,West,270,3.1,4.7,58,0.00,,,0.02,WUHU216HW,2013-03-16 19:45:00,
2013-03-16 14:50:00,33.8,19.7,29.98,WNW,293,2.9,4.0,56,0.00,,,0.02,WUHU216HW,2013-03-16 19:50:00,
2013-03-16 14:55:00,33.8,19.7,29.97,South,180,3.6,6.5,56,0.00,,,0.02,WUHU216HW,2013-03-16 19:55:00,
2013-03-16 15:00:00,33.5,19.4,29.98,NNW,338,6.5,6.5,56,0.00,,,0.02,WUHU216HW,2013-03-16 20:00:00,
2013-03-16 15:05:00,32.9,18.9,29.97,NNW,338,3.4,6.5,56,0.00,,,0.02,WUHU216HW,2013-03-16 20:05:00,
2013-03-16 15:10:00,32.4,19.3,29.97,NE,45,2.5,6.9,58,0.00,,,0.02,WUHU216HW,2013-03-16 20:10:00,
2013-03-16 15:15:00,32.8,19.2,29.97,NW,315,4.7,6.9,57,0.00,,,0.02,WUHU216HW,2013-03-16 20:15:00,
2013-03-16 15:20:00,32.4,19.3,29.97,North,0,4.0,6.9,58,0.00,,,0.02,WUHU216HW,2013-03-16 20:20:00,
2013-03-16 15:25:00,32.2,18.6,29.97,NW,315,4.5,6.9,57,0.00,,,0.02,WUHU216HW,2013-03-16 20:25:00,
2013-03-16 15:30:00,32.4,19.3,29.97,WNW,293,2.5,6.7,58,0.00,,,0.02,WUHU216HW,2013-03-16 20:30:00,
2013-03-16 15:35:00,32.8,18.7,29.97,NNE,23,7.4,7.4,56,0.00,,,0.02,WUHU216HW,2013-03-16 20:35:00,
2013-03-16 15:40:00,32.4,18.0,29.97,NNW,338,9.6,9.6,55,0.00,,,0.02,WUHU216HW,2013-03-16 20:40:00,
2013-03-16 15:45:00,31.5,18.0,29.97,North,0,4.0,9.6,57,0.00,,,0.02,WUHU216HW,2013-03-16 20:45:00,
2013-03-16 15:50:00,31.7,18.2,29.97,NW,315,8.7,8.7,57,0.00,,,0.02,WUHU216HW,2013-03-16 20:50:00,
2013-03-16 15:55:00,31.3,18.3,29.97,WNW,293,6.0,8.7,58,0.00,,,0.02,WUHU216HW,2013-03-16 20:55:00,
2013-03-16 16:00:00,32.2,18.6,29.97,West,270,4.0,8.5,57,0.00,,,0.02,WUHU216HW,2013-03-16 21:00:00,
2013-03-16 16:05:00,32.4,18.4,29.98,WNW,293,2.2,7.4,56,0.00,,,0.02,WUHU216HW,2013-03-16 21:05:00,
2013-03-16 16:10:00,32.4,18.8,29.97,NW,315,1.1,7.4,57,0.00,,,0.02,WUHU216HW,2013-03-16 21:10:00,
2013-03-16 16:15:00,32.8,18.7,29.98,North,0,3.4,7.6,56,0.00,,,0.02,WUHU216HW,2013-03-16 21:15:00,
2013-03-16 16:20:00,32.6,19.0,29.97,NW,315,4.7,7.6,57,0.00,,,0.02,WUHU216HW,2013-03-16 21:20:00,
2013-03-16 16:25:00,32.6,18.5,29.98,NNW,338,6.9,6.9,56,0.00,,,0.02,WUHU216HW,2013-03-16 21:25:00,
2013-03-16 16:30:00,32.9,19.4,29.97,NW,315,1.1,6.9,57,0.00,,,0.02,WUHU216HW,2013-03-16 21:30:00,
2013-03-16 16:36:00,33.5,19.4,29.97,NW,315,2.0,5.4,56,0.00,,,0.02,WUHU216HW,2013-03-16 21:36:00,
2013-03-16 16:41:00,33.5,18.6,29.97,West,270,5.1,5.6,54,0.00,,,0.02,WUHU216HW,2013-03-16 21:41:00,
2013-03-16 16:48:00,33.8,19.3,29.97,NNW,338,2.5,6.9,55,0.00,,,0.02,WUHU216HW,2013-03-16 21:48:00,
2013-03-16 16:53:00,33.1,18.6,29.97,WNW,293,4.9,6.9,55,0.00,,,0.02,WUHU216HW,2013-03-16 21:53:00,
2013-03-16 16:58:00,32.6,18.1,29.96,NNW,338,4.7,6.3,55,0.00,,,0.02,WUHU216HW,2013-03-16 21:58:00,
2013-03-16 17:03:00,32.0,18.1,29.96,NW,315,4.9,8.7,56,0.00,,,0.02,WUHU216HW,2013-03-16 22:03:00,
2013-03-16 17:08:00,32.2,18.3,29.97,WNW,293,2.5,8.7,56,0.00,,,0.02,WUHU216HW,2013-03-16 22:08:00,
2013-03-16 17:13:00,31.7,17.3,29.97,West,270,4.7,7.2,55,0.00,,,0.02,WUHU216HW,2013-03-16 22:13:00,
2013-03-16 17:18:00,31.3,17.4,29.97,West,270,8.9,11.9,56,0.00,,,0.02,WUHU216HW,2013-03-16 22:18:00,
2013-03-16 17:23:00,31.1,17.7,29.97,NW,315,2.5,11.9,57,0.00,,,0.02,WUHU216HW,2013-03-16 22:23:00,
2013-03-16 17:28:00,31.5,18.0,29.97,WNW,293,1.8,5.8,57,0.00,,,0.02,WUHU216HW,2013-03-16 22:28:00,
2013-03-16 17:33:00,32.0,18.1,29.97,NW,315,7.8,7.8,56,0.00,,,0.02,WUHU216HW,2013-03-16 22:33:00,
2013-03-16 17:38:00,31.3,17.8,29.97,NNW,338,2.2,7.8,57,0.00,,,0.02,WUHU216HW,2013-03-16 22:38:00,
2013-03-16 17:43:00,31.3,17.8,29.97,WNW,293,2.5,4.7,57,0.00,,,0.02,WUHU216HW,2013-03-16 22:43:00,
2013-03-16 17:48:00,31.5,18.5,29.97,WNW,293,2.5,3.6,58,0.00,,,0.02,WUHU216HW,2013-03-16 22:48:00,
2013-03-16 17:53:00,31.3,17.8,29.97,West,270,3.1,5.6,57,0.00,,,0.02,WUHU216HW,2013-03-16 22:53:00,
2013-03-16 17:58:00,31.3,18.3,29.97,West,270,2.7,5.6,58,0.00,,,0.02,WUHU216HW,2013-03-16 22:58:00,
2013-03-16 18:03:00,31.0,17.9,29.97,NW,315,7.2,7.2,58,0.00,,,0.02,WUHU216HW,2013-03-16 23:03:00,
2013-03-16 18:08:00,30.4,17.4,29.97,NW,315,4.0,7.2,58,0.00,,,0.02,WUHU216HW,2013-03-16 23:08:00,
2013-03-16 18:13:00,29.9,17.3,29.98,WSW,248,3.4,7.2,59,0.00,,,0.02,WUHU216HW,2013-03-16 23:13:00,
2013-03-16 18:18:00,29.7,17.6,29.98,WNW,293,4.0,7.2,60,0.00,,,0.02,WUHU216HW,2013-03-16 23:18:00,
2013-03-16 18:23:00,29.5,17.4,29.97,North,0,1.8,4.5,60,0.00,,,0.02,WUHU216HW,2013-03-16 23:23:00,
2013-03-16 18:28:00,29.5,17.7,29.98,NW,315,0.2,4.5,61,0.00,,,0.02,WUHU216HW,2013-03-16 23:28:00,
2013-03-16 18:33:00,29.5,17.7,29.98,NW,315,1.8,5.6,61,0.00,,,0.02,WUHU216HW,2013-03-16 23:33:00,
2013-03-16 18:38:00,29.3,17.6,29.98,NNW,338,4.0,6.9,61,0.00,,,0.02,WUHU216HW,2013-03-16 23:38:00,
2013-03-16 18:43:00,29.2,17.7,29.98,NNE,23,4.3,6.9,62,0.00,,,0.02,WUHU216HW,2013-03-16 23:43:00,
2013-03-16 18:48:00,29.2,17.7,29.98,NW,315,3.1,5.6,62,0.00,,,0.02,WUHU216HW,2013-03-16 23:48:00,
2013-03-16 18:53:00,29.0,17.6,29.98,NW,315,4.0,4.0,62,0.00,,,0.02,WUHU216HW,2013-03-16 23:53:00,
2013-03-16 18:58:00,28.8,17.5,29.98,SW,225,2.7,4.0,62,0.00,,,0.02,WUHU216HW,2013-03-16 23:58:00,
2013-03-16 19:03:00,28.8,17.5,29.98,WSW,248,3.1,4.0,62,0.00,,,0.02,WUHU216HW,2013-03-17 00:03:00,
2013-03-16 19:08:00,28.6,17.3,29.98,West,270,1.3,4.0,62,0.00,,,0.02,WUHU216HW,2013-03-17 00:08:00,
2013-03-16 19:13:00,28.4,17.1,29.98,West,270,0.7,2.5,62,0.00,,,0.02,WUHU216HW,2013-03-17 00:13:00,
2013-03-16 19:18:00,28.4,17.1,29.99,West,270,0.4,4.9,62,0.00,,,0.02,WUHU216HW,2013-03-17 00:18:00,
2013-03-16 19:23:00,28.4,17.1,29.99,WSW,248,0.4,4.9,62,0.00,,,0.02,WUHU216HW,2013-03-17 00:23:00,
2013-03-16 19:28:00,28.3,16.9,29.99,NW,315,0.7,4.7,62,0.00,,,0.02,WUHU216HW,2013-03-17 00:28:00,
2013-03-16 19:33:00,28.1,16.7,29.99,West,270,3.8,3.8,62,0.00,,,0.02,WUHU216HW,2013-03-17 00:33:00,
2013-03-16 19:38:00,28.1,16.7,30.00,NNW,338,2.7,3.8,62,0.00,,,0.02,WUHU216HW,2013-03-17 00:38:00,
2013-03-16 19:43:00,27.9,16.6,30.00,NW,315,1.8,2.7,62,0.00,,,0.02,WUHU216HW,2013-03-17 00:43:00,
2013-03-16 19:48:00,27.9,16.6,30.00,WNW,293,1.8,4.7,62,0.00,,,0.02,WUHU216HW,2013-03-17 00:48:00,
2013-03-16 19:53:00,27.7,16.7,30.00,WNW,293,4.7,4.7,63,0.00,,,0.02,WUHU216HW,2013-03-17 00:53:00,
2013-03-16 19:58:00,27.7,16.7,30.00,NNW,338,1.8,5.4,63,0.00,,,0.02,WUHU216HW,2013-03-17 00:58:00,
2013-03-16 20:03:00,27.7,16.7,30.01,WSW,248,3.4,5.4,63,0.00,,,0.02,WUHU216HW,2013-03-17 01:03:00,
2013-03-16 20:08:00,27.5,16.6,30.01,NW,315,2.9,5.4,63,0.00,,,0.02,WUHU216HW,2013-03-17 01:08:00,
2013-03-16 20:13:00,27.5,16.6,30.02,NNW,338,3.1,4.7,63,0.00,,,0.02,WUHU216HW,2013-03-17 01:13:00,
2013-03-16 20:19:00,27.4,16.4,30.02,NW,315,3.8,6.0,63,0.00,,,0.02,WUHU216HW,2013-03-17 01:19:00,
2013-03-16 20:24:00,27.4,16.4,30.03,NW,315,4.9,6.0,63,0.00,,,0.02,WUHU216HW,2013-03-17 01:24:00,
2013-03-16 20:29:00,27.4,16.4,30.02,NNW,338,2.5,6.3,63,0.00,,,0.02,WUHU216HW,2013-03-17 01:29:00,
2013-03-16 20:34:00,27.2,16.2,30.03,NNW,338,2.5,10.3,63,0.00,,,0.02,WUHU216HW,2013-03-17 01:34:00,
2013-03-16 20:39:00,27.2,16.6,30.03,WSW,248,3.4,10.3,64,0.00,,,0.02,WUHU216HW,2013-03-17 01:39:00,
2013-03-16 20:44:00,27.2,16.6,30.03,NW,315,3.4,7.6,64,0.00,,,0.02,WUHU216HW,2013-03-17 01:44:00,
2013-03-16 20:49:00,27.0,16.4,30.04,NNW,338,4.9,7.6,64,0.00,,,0.02,WUHU216HW,2013-03-17 01:49:00,
2013-03-16 20:54:00,27.0,16.7,30.04,NNW,338,4.9,4.9,65,0.00,,,0.02,WUHU216HW,2013-03-17 01:54:00,
2013-03-16 20:59:00,27.0,16.7,30.04,WNW,293,4.3,5.8,65,0.00,,,0.02,WUHU216HW,2013-03-17 01:59:00,
2013-03-16 21:04:00,26.8,16.2,30.05,NW,315,6.3,6.9,64,0.00,,,0.02,WUHU216HW,2013-03-17 02:04:00,
2013-03-16 21:09:00,26.8,16.2,30.05,NNW,338,5.4,6.9,64,0.00,,,0.02,WUHU216HW,2013-03-17 02:09:00,
2013-03-16 21:14:00,26.6,16.0,30.05,NNW,338,3.4,5.6,64,0.00,,,0.02,WUHU216HW,2013-03-17 02:14:00,
2013-03-16 21:19:00,26.5,15.8,30.05,NNW,338,4.5,5.6,64,0.00,,,0.02,WUHU216HW,2013-03-17 02:19:00,
2013-03-16 21:24:00,26.3,15.7,30.05,NW,315,6.0,6.9,64,0.00,,,0.02,WUHU216HW,2013-03-17 02:24:00,
2013-03-16 21:29:00,26.3,15.7,30.05,West,270,2.9,6.9,64,0.00,,,0.02,WUHU216HW,2013-03-17 02:29:00,
2013-03-16 21:34:00,25.9,15.3,30.05,West,270,7.2,7.6,64,0.00,,,0.02,WUHU216HW,2013-03-17 02:34:00,
2013-03-16 21:39:00,25.7,15.2,30.05,NW,315,3.4,7.6,64,0.00,,,0.02,WUHU216HW,2013-03-17 02:39:00,
2013-03-16 21:44:00,25.6,15.4,30.05,North,0,2.2,4.9,65,0.00,,,0.02,WUHU216HW,2013-03-17 02:44:00,
2013-03-16 21:49:00,25.6,15.4,30.05,NNW,338,2.2,4.9,65,0.00,,,0.02,WUHU216HW,2013-03-17 02:49:00,
2013-03-16 21:54:00,25.4,15.6,30.06,NW,315,2.7,3.1,66,0.00,,,0.02,WUHU216HW,2013-03-17 02:54:00,
2013-03-16 21:59:00,25.2,15.4,30.05,NW,315,4.3,4.3,66,0.00,,,0.02,WUHU216HW,2013-03-17 02:59:00,
2013-03-16 22:04:00,25.0,15.2,30.05,NW,315,1.1,4.5,66,0.00,,,0.02,WUHU216HW,2013-03-17 03:04:00,
2013-03-16 22:09:00,24.8,15.0,30.06,NW,315,2.2,4.5,66,0.00,,,0.02,WUHU216HW,2013-03-17 03:09:00,
2013-03-16 22:14:00,24.8,15.0,30.06,NNW,338,0.2,3.1,66,0.00,,,0.02,WUHU216HW,2013-03-17 03:14:00,
2013-03-16 22:19:00,24.7,15.2,30.06,NW,315,1.1,3.1,67,0.00,,,0.02,WUHU216HW,2013-03-17 03:19:00,
2013-03-16 22:24:00,24.5,15.0,30.06,West,270,1.1,4.0,67,0.00,,,0.02,WUHU216HW,2013-03-17 03:24:00,
2013-03-16 22:29:00,24.5,15.0,30.06,NNW,338,2.7,4.0,67,0.00,,,0.02,WUHU216HW,2013-03-17 03:29:00,
2013-03-16 22:34:00,24.3,14.9,30.06,WNW,293,0.9,2.9,67,0.00,,,0.02,WUHU216HW,2013-03-17 03:34:00,
2013-03-16 22:39:00,24.1,15.0,30.06,WNW,293,2.9,2.9,68,0.00,,,0.02,WUHU216HW,2013-03-17 03:39:00,
2013-03-16 22:44:00,24.1,15.0,30.06,SW,225,1.1,2.9,68,0.00,,,0.02,WUHU216HW,2013-03-17 03:44:00,
2013-03-16 22:49:00,24.1,15.0,30.06,West,270,0.0,1.8,68,0.00,,,0.02,WUHU216HW,2013-03-17 03:49:00,
2013-03-16 22:54:00,23.9,14.9,30.06,WSW,248,0.7,2.7,68,0.00,,,0.02,WUHU216HW,2013-03-17 03:54:00,
2013-03-16 22:59:00,23.8,14.7,30.07,West,270,1.8,2.7,68,0.00,,,0.02,WUHU216HW,2013-03-17 03:59:00,
2013-03-16 23:00:00,23.8,14.7,30.07,NW,315,1.6,2.7,68,0.00,,,0.02,WUHU216HW,2013-03-17 04:00:00,
2013-03-16 23:05:00,23.6,14.9,30.07,WNW,293,1.8,2.2,69,0.00,,,0.02,WUHU216HW,2013-03-17 04:05:00,
2013-03-16 23:10:00,23.6,14.9,30.07,NW,315,1.1,2.2,69,0.00,,,0.02,WUHU216HW,2013-03-17 04:10:00,
2013-03-16 23:15:00,23.4,14.8,30.07,NW,315,0.7,2.0,69,0.00,,,0.02,WUHU216HW,2013-03-17 04:15:00,
2013-03-16 23:20:00,23.4,14.8,30.07,West,270,0.2,1.3,69,0.00,,,0.02,WUHU216HW,2013-03-17 04:20:00,
2013-03-16 23:25:00,23.2,14.6,30.08,WNW,293,0.9,1.8,69,0.00,,,0.02,WUHU216HW,2013-03-17 04:25:00,
2013-03-16 23:30:00,23.2,14.6,30.08,NNW,338,3.1,3.1,69,0.00,,,0.02,WUHU216HW,2013-03-17 04:30:00,
2013-03-16 23:35:00,23.2,14.6,30.08,WNW,293,4.7,4.7,69,0.00,,,0.02,WUHU216HW,2013-03-17 04:35:00,
2013-03-16 23:40:00,23.0,14.4,30.08,NW,315,1.1,4.7,69,0.00,,,0.02,WUHU216HW,2013-03-17 04:40:00,
2013-03-16 23:45:00,23.0,14.4,30.08,WNW,293,1.1,3.8,69,0.00,,,0.02,WUHU216HW,2013-03-17 04:45:00,
2013-03-16 23:50:00,22.9,14.2,30.09,NW,315,1.6,3.8,69,0.00,,,0.02,WUHU216HW,2013-03-17 04:50:00,
2013-03-16 23:55:00,22.7,14.0,30.09,NW,315,1.6,2.7,69,0.00,,,0.02,WUHU216HW,2013-03-17 04:55:00,